| time (UTC) | temp C | wind direction | speed KPH | gust KPH | rain 1hr cm | rain 24hr cm | rain mn cm | humidity % | barometer mb |
| 20260503053944 | 13 | 0 | 0.0 | 0.0 | 0.00 | 0.05 | 0.00 | 88 | 1009.8 |
| 20260503052944 | 13 | 0 | 0.0 | 0.0 | 0.00 | 0.05 | 0.00 | 90 | 1009.9 |
| 20260503050946 | 12 | 0 | 0.0 | 0.0 | 0.00 | 0.05 | 0.00 | 96 | 1009.9 |
| 20260503044941 | 11 | 0 | 0.0 | 0.0 | 0.00 | 0.05 | 0.00 | 97 | 1009.9 |
| 20260503043944 | 11 | 0 | 0.0 | 0.0 | 0.00 | 0.05 | 0.00 | 97 | 1010.0 |
| 20260503041941 | 11 | 0 | 0.0 | 0.0 | 0.00 | 0.05 | 0.00 | 97 | 1010.1 |
| 20260503035947 | 11 | 0 | 0.0 | 0.0 | 0.00 | 0.05 | 0.00 | 97 | 1010.3 |
| 20260503034942 | 11 | 0 | 0.0 | 0.0 | 0.00 | 0.05 | 0.00 | 97 | 1010.3 |
| 20260503033947 | 11 | 0 | 0.0 | 0.0 | 0.00 | 0.05 | 0.00 | 97 | 1010.3 |
| 20260503025945 | 11 | 0 | 0.0 | 0.0 | 0.00 | 0.05 | 0.00 | 96 | 1010.3 |
| 20260503024946 | 11 | 0 | 0.0 | 0.0 | 0.00 | 0.05 | 0.00 | 97 | 1010.4 |
| 20260503014945 | 11 | 0 | 0.0 | 0.0 | 0.00 | 0.05 | 0.00 | 96 | 1010.8 |
| 20260503013943 | 11 | 0 | 0.0 | 0.0 | 0.00 | 0.05 | 0.00 | 96 | 1010.8 |
| 20260503012948 | 11 | 0 | 0.0 | 0.0 | 0.00 | 0.05 | 0.00 | 96 | 1010.8 |
| 20260503010948 | 11 | 0 | 0.0 | 0.0 | 0.00 | 0.05 | 0.00 | 96 | 1011.0 |
| 20260503005945 | 11 | 0 | 0.0 | 0.0 | 0.00 | 0.05 | 0.00 | 96 | 1011.1 |
| 20260503003942 | 12 | 0 | 0.0 | 0.0 | 0.00 | 0.05 | 0.00 | 96 | 1011.2 |
| 20260503001942 | 12 | 0 | 0.0 | 0.0 | 0.00 | 0.05 | 0.00 | 95 | 1011.3 |
| 20260503000943 | 12 | 0 | 0.0 | 0.0 | 0.00 | 0.05 | 0.00 | 94 | 1011.4 |
| 20260502235947 | 12 | 0 | 0.0 | 0.0 | 0.00 | 0.05 | 0.00 | 93 | 1011.4 |
| 20260502234945 | 12 | 0 | 0.0 | 0.0 | 0.00 | 0.05 | 0.00 | 93 | 1011.5 |
| 20260502233947 | 13 | 0 | 0.0 | 0.0 | 0.00 | 0.05 | 0.00 | 92 | 1011.5 |
| 20260502232947 | 13 | 0 | 0.0 | 0.0 | 0.00 | 0.05 | 0.00 | 91 | 1011.4 |
| 20260502230945 | 15 | 0 | 0.0 | 0.0 | 0.00 | 0.05 | 0.00 | 87 | 1011.5 |
| 20260502223947 | 15 | 0 | 0.0 | 0.0 | 0.00 | 0.05 | 0.00 | 84 | 1011.5 |
| 20260502222945 | 15 | 0 | 0.0 | 0.0 | 0.00 | 0.05 | 0.00 | 83 | 1011.5 |
| 20260502215944 | 13 | 0 | 0.0 | 0.0 | 0.00 | 0.05 | 0.05 | 91 | 1011.6 |
| 20260502212950 | 14 | 0 | 0.0 | 0.0 | 0.00 | 0.05 | 0.05 | 90 | 1011.8 |
| 20260502204950 | 13 | 0 | 0.0 | 0.0 | 0.00 | 0.05 | 0.05 | 92 | 1011.9 |
| 20260502202946 | 13 | 0 | 0.0 | 0.0 | 0.00 | 0.05 | 0.05 | 90 | 1012.0 |
| 20260502201949 | 14 | 0 | 0.0 | 0.0 | 0.00 | 0.05 | 0.05 | 90 | 1011.9 |
| 20260502200952 | 14 | 0 | 0.0 | 0.0 | 0.05 | 0.05 | 0.05 | 89 | 1012.0 |
| 20260502194945 | 14 | 0 | 0.0 | 0.0 | 0.05 | 0.05 | 0.05 | 87 | 1012.1 |
| 20260502185945 | 16 | 0 | 0.0 | 0.0 | 0.05 | 0.05 | 0.05 | 85 | 1012.2 |
| 20260502162951 | 23 | 0 | 0.0 | 0.0 | 0.00 | 0.00 | 0.00 | 52 | 1011.8 |
| 20260502161945 | 23 | 0 | 0.0 | 0.0 | 0.00 | 0.00 | 0.00 | 52 | 1011.9 |
| 20260502150951 | 23 | 0 | 0.0 | 0.0 | 0.00 | 0.00 | 0.00 | 53 | 1012.8 |
| 20260502121948 | 22 | 0 | 0.0 | 0.0 | 0.00 | 0.00 | 0.00 | 57 | 1015.3 |
| 20260502114946 | 21 | 0 | 0.0 | 0.0 | 0.00 | 0.00 | 0.00 | 60 | 1015.7 |
| 20260502103952 | 21 | 0 | 0.0 | 0.0 | 0.00 | 0.00 | 0.00 | 62 | 1016.4 |
| 20260502102949 | 21 | 0 | 0.0 | 0.0 | 0.00 | 0.00 | 0.00 | 63 | 1016.5 |
| 20260502101946 | 21 | 0 | 0.0 | 0.0 | 0.00 | 0.00 | 0.00 | 64 | 1016.6 |
| 20260502090946 | 20 | 0 | 0.0 | 0.0 | 0.00 | 0.00 | 0.00 | 65 | 1016.9 |
| 20260502070950 | 14 | 0 | 0.0 | 0.0 | 0.00 | 0.00 | 0.00 | 78 | 1018.0 |
| 20260502065950 | 14 | 0 | 0.0 | 0.0 | 0.00 | 0.00 | 0.00 | 75 | 1018.1 |
| 20260502064947 | 14 | 0 | 0.0 | 0.0 | 0.00 | 0.00 | 0.00 | 77 | 1018.1 |
| 20260502061948 | 12 | 0 | 0.0 | 0.0 | 0.00 | 0.00 | 0.00 | 85 | 1018.2 |
| 20260502055947 | 11 | 0 | 0.0 | 0.0 | 0.00 | 0.00 | 0.00 | 87 | 1018.3 |